FW9926 Weather Reports


Display with metric or nautical units.
time (UTC)temp
F
wind
direction
speed
MPH
gust
MPH
rain 1hr
in
rain 24hr
in
rain mn
in
humidity
%
barometer
mb
20260903041609 59 276 2.0 6.0 0.00 0.00 0.00 15 1022.4
20260903040109 59 278 2.0 4.0 0.00 0.00 0.00 14 1022.3
20260903034606 58 0 0.0 0.0 0.00 0.00 0.00 15 1022.1
20260903033124 56 0 0.0 0.0 0.00 0.00 0.00 17 1022.2
20260903031635 57 0 0.0 2.0 0.00 0.00 0.00 19 1022.2
20260903030107 57 0 0.0 1.0 0.00 0.00 0.00 22 1022.1
20260903024603 58 0 0.0 2.0 0.00 0.00 0.00 24 1022.0
20260903023104 59 0 0.0 0.0 0.00 0.00 0.00 22 1022.0
20260903021607 60 0 0.0 0.0 0.00 0.00 0.00 27 1022.0
20260903020059 61 0 0.0 0.0 0.00 0.00 0.00 27 1022.1
20260903014604 63 0 0.0 0.0 0.00 0.00 0.00 29 1022.3
20260903013105 64 0 0.0 2.0 0.00 0.00 0.00 26 1022.4
20260903011602 64 0 0.0 4.0 0.00 0.00 0.00 28 1022.4
20260903010104 65 287 0.0 4.0 0.00 0.00 0.00 26 1022.4
20260903004604 66 279 1.0 4.0 0.00 0.00 0.00 31 1022.5
20260903003104 66 0 0.0 3.0 0.00 0.00 0.00 25 1022.7
20260903001605 67 0 0.0 5.0 0.00 0.00 0.00 31 1022.7
20260903000057 68 163 1.0 5.0 0.00 0.00 0.00 28 1022.7
20260902234607 69 0 1.0 9.0 0.00 0.00 0.00 30 1022.9
20260902233102 70 131 1.0 6.0 0.00 0.00 0.00 34 1023.1
20260902231559 71 159 1.0 7.0 0.00 0.00 0.00 36 1023.2
20260902230056 70 166 1.0 8.0 0.00 0.00 0.00 39 1023.4
20260902224607 70 130 4.0 11.0 0.00 0.00 0.00 36 1023.5
20260902223100 70 156 4.0 9.0 0.00 0.00 0.00 36 1023.6
20260902221557 71 219 3.0 9.0 0.00 0.00 0.00 37 1023.6
20260902214608 71 136 5.0 10.0 0.00 0.00 0.00 33 1023.6
20260902213108 72 141 2.0 10.0 0.00 0.00 0.00 22 1023.7
20260902211603 72 174 5.0 10.0 0.00 0.00 0.00 19 1023.9
20260902210100 72 146 0.0 13.0 0.00 0.00 0.00 23 1024.0
20260902204554 72 151 1.0 8.0 0.00 0.00 0.00 26 1024.0
20260902203127 72 0 2.0 8.0 0.00 0.00 0.00 22 1024.3
20260902201605 71 0 2.0 10.0 0.00 0.00 0.00 24 1024.2
20260902200100 72 143 3.0 11.0 0.00 0.00 0.00 22 1024.3
20260902194604 73 249 2.0 8.0 0.00 0.00 0.00 21 1024.2
20260902193101 71 187 4.0 9.0 0.00 0.00 0.00 23 1024.4
20260902191559 73 207 3.0 8.0 0.00 0.00 0.00 20 1024.3
20260902190109 72 294 3.0 11.0 0.00 0.00 0.00 16 1024.4
20260902184605 73 0 2.0 8.0 0.00 0.00 0.00 17 1024.3
20260902183125 74 160 0.0 6.0 0.00 0.00 0.00 17 1024.3
20260902181600 72 244 2.0 7.0 0.00 0.00 0.00 15 1024.3
20260902180106 72 11 2.0 7.0 0.00 0.00 0.00 17 1024.4
20260902174608 71 325 2.0 8.0 0.00 0.00 0.00 16 1024.4
20260902173109 71 336 2.0 9.0 0.00 0.00 0.00 17 1024.2
20260902171610 70 355 2.0 9.0 0.00 0.00 0.00 18 1024.1
20260902170107 69 306 1.0 7.0 0.00 0.00 0.00 17 1023.9
20260902164601 68 323 2.0 8.0 0.00 0.00 0.00 19 1023.8
20260902163138 68 211 2.0 7.0 0.00 0.00 0.00 17 1023.6
20260902161607 67 299 2.0 7.0 0.00 0.00 0.00 21 1023.7
20260902154557 65 289 2.0 4.0 0.00 0.00 0.00 22 1023.5
20260902153104 64 0 0.0 4.0 0.00 0.00 0.00 22 1023.5
20260902151604 64 0 0.0 0.0 0.00 0.00 0.00 22 1023.4
20260902150106 61 0 0.0 0.0 0.00 0.00 0.00 24 1023.3
20260902144555 60 0 0.0 3.0 0.00 0.00 0.00 24 1023.1
20260902143056 59 0 0.0 3.0 0.00 0.00 0.00 25 1023.2
20260902141555 59 315 1.0 4.0 0.00 0.00 0.00 24 1022.9
20260902140109 59 11 1.0 5.0 0.00 0.00 0.00 23 1022.8
20260902134559 58 294 2.0 6.0 0.00 0.00 0.00 23 1022.6
20260902133055 58 343 2.0 4.0 0.00 0.00 0.00 23 1022.6
20260902131609 58 352 2.0 5.0 0.00 0.00 0.00 22 1022.7
20260902130100 59 360 2.0 5.0 0.00 0.00 0.00 23 1022.7
20260902124610 58 330 1.0 4.0 0.00 0.00 0.00 24 1022.6
20260902123139 59 5 2.0 5.0 0.00 0.00 0.00 24 1022.6
20260902121602 59 295 1.0 5.0 0.00 0.00 0.00 23 1022.6
20260902120112 59 147 1.0 9.0 0.00 0.00 0.00 23 1022.8
20260902114600 58 0 0.0 5.0 0.00 0.00 0.00 26 1022.7
20260902113100 58 321 1.0 3.0 0.00 0.00 0.00 31 1022.7
20260902111607 58 146 3.0 8.0 0.00 0.00 0.00 39 1022.7
20260902110100 58 175 3.0 10.0 0.00 0.00 0.00 41 1022.8
20260902104604 59 128 4.0 10.0 0.00 0.00 0.00 38 1022.8
20260902103107 59 24 3.0 13.0 0.00 0.00 0.00 36 1022.9
20260902101558 58 0 2.0 10.0 0.00 0.00 0.00 36 1023.0
20260902100106 58 28 2.0 7.0 0.00 0.00 0.00 37 1023.1
20260902094557 57 159 1.0 9.0 0.00 0.00 0.00 28 1023.1
20260902093101 57 95 1.0 4.0 0.00 0.00 0.00 27 1023.2
20260902091607 58 0 0.0 7.0 0.00 0.00 0.00 26 1023.4
20260902090105 58 0 1.0 6.0 0.00 0.00 0.00 25 1023.2
20260902084603 58 0 1.0 8.0 0.00 0.00 0.00 25 1023.4
20260902083121 57 290 1.0 6.0 0.00 0.00 0.00 26 1023.4
20260902081606 57 0 0.0 4.0 0.00 0.00 0.00 26 1023.4
20260902074613 58 65 1.0 3.0 0.00 0.00 0.00 26 1023.3
20260902073101 58 0 1.0 5.0 0.00 0.00 0.00 26 1023.3
20260902071604 58 42 0.0 3.0 0.00 0.00 0.00 26 1023.4
20260902070107 58 0 0.0 2.0 0.00 0.00 0.00 25 1023.3
20260902064603 58 0 0.0 4.0 0.00 0.00 0.00 25 1023.1
20260902063105 58 21 0.0 3.0 0.00 0.00 0.00 25 1023.0
20260902061557 58 16 1.0 5.0 0.00 0.00 0.00 24 1023.0
20260902060100 59 15 1.0 4.0 0.00 0.00 0.00 24 1023.1
20260902054557 59 17 2.0 5.0 0.00 0.00 0.00 24 1023.1
20260902053102 59 0 0.0 0.0 0.00 0.00 0.00 24 1023.1
20260902051601 59 0 0.0 0.0 0.00 0.00 0.00 24 1023.2
20260902050109 59 0 0.0 0.0 0.00 0.00 0.00 24 1023.5
20260902044557 60 290 1.0 3.0 0.00 0.00 0.00 23 1023.1
20260902043106 60 290 2.0 4.0 0.00 0.00 0.00 23 1023.1